sat.trackr.live / text

‹ back to catalog

SCS-01 D

NORAD 63985 · 2025-100D

PAYLOAD ACTIVE UNKNOWN

§ Identity

Operator
Country
PRC
Launch date
2025-05-14
Launch site
JSC
Launch vehicle
Mass (kg)
RCS (m²)

External: N2YO · Heavens-Above · Gunter

§ Orbital elements

Epoch: 2026-05-25T03:38:31.836768Z

Period
94.07 min
Inclination
97.3669°
Eccentricity
0.0008663
Mean motion
15.30710985 rev/d
Perigee alt
467.8 km
Apogee alt
479.6 km
Semi-major
6,851.8 km
B*
7.2915e-4
RAAN
221.1785°
Arg perigee
16.6219°
Mean anomaly
343.5305°
Rev number
5,730

§ Raw data

SCS-01 D1 63985U 25100D   26145.15175737  .00021629  00000+0  72915-3 0  99992 63985  97.3669 221.1785 0008663  16.6219 343.5305 15.30710985 57304

JSON: /api/v1/satellites/63985 · /tle

For live sub-satellite position, see the globe view (requires WebGL).

§ Visibility from observer

Set your observer location to see the next 7 days of passes ≥ 10°. The values pass through the URL so the page stays shareable.

No JS? Fill the form by hand. The geolocation button needs JavaScript.